N7BTW-13 Weather Reports


time (UTC)temp
C
wind
direction
speed
KPH
gust
KPH
rain 1hr
cm
rain 24hr
cm
rain mn
cm
humidity
%
barometer
mb
20260503220006 34 130 3.2 4.8 0.00 0.00 0.00 28 1009.3
20260503215005 33 240 3.2 4.8 0.00 0.00 0.00 29 1009.4
20260503214006 33 327 3.2 4.8 0.00 0.00 0.00 32 1009.6
20260503213006 33 285 3.2 4.8 0.00 0.00 0.00 31 1009.7
20260503212008 33 328 3.2 4.8 0.00 0.00 0.00 30 1009.8
20260503211007 33 350 3.2 6.4 0.00 0.00 0.00 31 1009.9
20260503210008 33 10 3.2 6.4 0.00 0.00 0.00 31 1010.0
20260503205010 33 270 1.6 4.8 0.00 0.00 0.00 35 1010.1
20260503204011 32 322 3.2 4.8 0.00 0.00 0.00 34 1010.3
20260503203007 32 157 1.6 4.8 0.00 0.00 0.00 37 1010.4
20260503202009 32 18 1.6 3.2 0.00 0.00 0.00 40 1010.5
20260503201011 32 300 3.2 4.8 0.00 0.00 0.00 42 1010.6
20260503200008 31 141 3.2 4.8 0.00 0.00 0.00 43 1010.8
20260503195008 31 254 1.6 4.8 0.00 0.00 0.00 46 1010.9
20260503194007 30 249 1.6 4.8 0.00 0.00 0.00 43 1010.9
20260503193007 30 28 3.2 6.4 0.00 0.00 0.00 45 1011.0
20260503192006 30 306 3.2 4.8 0.00 0.00 0.00 45 1011.2
20260503191008 30 293 3.2 4.8 0.00 0.00 0.00 47 1011.3
20260503190008 29 242 1.6 4.8 0.00 0.00 0.00 48 1011.4
20260503185010 28 83 1.6 4.8 0.00 0.00 0.00 49 1011.4
20260503184007 28 232 1.6 3.2 0.00 0.00 0.00 51 1011.6
20260503183010 27 294 1.6 4.8 0.00 0.00 0.00 50 1011.7
20260503182010 27 45 1.6 4.8 0.00 0.00 0.00 52 1011.8
20260503181005 27 349 1.6 3.2 0.00 0.00 0.00 50 1011.9
20260503180008 26 44 1.6 4.8 0.00 0.00 0.00 51 1012.0
20260503175007 26 228 3.2 4.8 0.00 0.00 0.00 51 1012.1
20260503174008 25 201 1.6 4.8 0.00 0.00 0.00 53 1012.1
20260503173007 25 2 1.6 3.2 0.00 0.00 0.00 54 1012.2
20260503172009 25 129 1.6 4.8 0.00 0.00 0.00 54 1012.3
20260503171008 23 266 1.6 4.8 0.00 0.00 0.00 57 1012.3
20260503151008 13 0.0 0.0 0.00 0.00 0.00 99 1012.7
20260503131008 8 0.0 0.0 0.00 0.00 0.00 99 1012.3
20260503081007 11 0.0 0.0 0.00 0.00 0.00 99 1013.0
20260503072009 12 0.0 0.0 0.00 0.00 0.00 98 1013.0
20260503071005 12 0.0 0.0 0.00 0.00 0.00 98 1013.1
20260503055009 13 0.0 0.0 0.00 0.00 0.00 96 1012.8
20260503054010 13 203 0.0 4.8 0.00 0.00 0.00 94 1012.9
20260503053009 14 0.0 0.0 0.00 0.00 0.00 92 1013.2
20260503052008 14 0.0 0.0 0.00 0.00 0.00 93 1013.4
20260503051007 15 0.0 0.0 0.00 0.00 0.00 90 1013.3
20260503050008 15 0.0 0.0 0.00 0.00 0.00 91 1013.2
20260503045005 15 0.0 0.0 0.00 0.00 0.00 89 1013.2
20260503044008 15 0.0 0.0 0.00 0.00 0.00 88 1013.3
20260503043006 16 0.0 0.0 0.00 0.00 0.00 87 1013.5
20260503042008 16 0.0 0.0 0.00 0.00 0.00 86 1013.4
20260503041007 16 0.0 0.0 0.00 0.00 0.00 85 1013.3
20260503040007 16 250 1.6 3.2 0.00 0.00 0.00 85 1013.3
20260503035007 17 338 0.0 3.2 0.00 0.00 0.00 84 1013.2
20260503034007 17 270 0.0 4.8 0.00 0.00 0.00 83 1012.9
20260503033007 17 0.0 0.0 0.00 0.00 0.00 81 1013.0
20260503032006 18 0.0 0.0 0.00 0.00 0.00 79 1012.9
20260503031007 18 219 1.6 4.8 0.00 0.00 0.00 78 1013.0
20260503030006 18 214 3.2 4.8 0.00 0.00 0.00 77 1013.0
20260503025007 19 243 3.2 4.8 0.00 0.00 0.00 76 1012.8
20260503024006 20 211 3.2 6.4 0.00 0.00 0.00 75 1012.7
20260503023007 20 235 4.8 8.0 0.00 0.00 0.00 73 1012.7
20260503022009 20 210 4.8 8.0 0.00 0.00 0.00 73 1012.7
20260503021007 20 191 3.2 3.2 0.00 0.00 0.00 73 1012.2
20260503020006 20 210 1.6 4.8 0.00 0.00 0.00 73 1012.0
20260503015007 20 220 3.2 6.4 0.00 0.00 0.00 72 1011.9
20260503014007 21 200 4.8 8.0 0.00 0.00 0.00 71 1011.9
20260503013006 21 214 3.2 6.4 0.00 0.00 0.00 70 1011.9
20260503012007 21 192 3.2 4.8 0.00 0.00 0.00 70 1011.8
20260503011007 21 254 3.2 4.8 0.00 0.00 0.00 69 1011.8
20260503010006 22 0.0 0.0 0.00 0.00 0.00 64 1011.8
20260503005006 22 241 0.0 3.2 0.00 0.00 0.00 65 1011.8
20260503004007 22 113 0.0 1.6 0.00 0.00 0.00 65 1011.8
20260503003006 22 0.0 0.0 0.00 0.00 0.00 64 1011.8
20260503002006 22 237 1.6 3.2 0.00 0.00 0.00 64 1011.8
20260503001007 22 230 3.2 4.8 0.00 0.00 0.00 63 1011.9
20260503000006 23 220 3.2 3.2 0.00 0.00 0.00 62 1012.0
20260502235005 23 224 1.6 3.2 0.00 0.00 0.00 63 1012.0
20260502234006 23 257 1.6 4.8 0.00 0.00 0.00 63 1012.3
20260502233007 23 325 3.2 4.8 0.00 0.00 0.00 63 1012.4
20260502232005 22 217 3.2 6.4 0.00 0.00 0.00 65 1012.6
20260502231008 21 252 3.2 4.8 0.00 0.00 0.00 67 1012.8
20260502230007 21 279 1.6 3.2 0.00 0.00 0.00 67 1012.9
20260502225007 21 273 1.6 4.8 0.00 0.00 0.00 70 1013.0
20260502224006 21 117 1.6 4.8 0.00 0.00 0.00 68 1013.2
20260502223006 21 243 1.6 3.2 0.00 0.00 0.00 68 1013.4
20260502222007 21 290 3.2 6.4 0.00 0.00 0.00 65 1013.6
20260502221007 22 252 3.2 3.2 0.00 0.00 0.00 64 1013.7